C/2020 H6 ( ATLAS )

Japanese version
Home page
Updated on May 24, 2020

---------------------------------------------------------------------

* Profile

Discovery Date April 22, 2020
Magnitude 18.1 mag
Discoverer James Robinson (Asteroid Terrestrial-Impact Last Alert System (ATLAS) search program)

* Orbital Elements

Epoch 2021 Sept. 23.0 TT = JDT 2459480.5
T 2021 Sept. 30.92816 TT                                Rudenko
q   4.7043430            (2000.0)            P               Q
z  -0.0002903      Peri.   20.32181     -0.74669083     +0.37945898
 +/-0.0003167      Node   213.69550     -0.65947879     -0.31509698
e   1.0013659      Incl.   79.98075     +0.08683622     +0.86989929
From 59 observations 2020 Apr. 22-May 20, mean residual 0".4.

* Finding Charts

* Magnitudes Graph

        m1 = 7.0 + 5 log d + 10.0 log r

---------------------------------------------------------------------

The orbital elements are published on M.P.E.C. 2020-K117.
The charts are made with StellaNavigator Ver.10 (AstroArts).
The magnitudes graphs are made with Comet for Windows.

---------------------------------------------------------------------

Copyright(C) Seiichi Yoshida (comet@aerith.net). All rights reserved.